Location: Capvern
(43.1036°N, 0.3160°E)
Time: 07:20:31
(UTC+00:00)

Daily predictions for brighter satellites

Satellite Brightness Start Highest point End
(mag) Time Altitude Azimuth Time Altitude Azimuth Time Altitude Azimuth
SL-16 R/B 3.9 18:48:05 10° N 18:51:34 16° NE 18:55:02 10° E
BlueWalker 3 3.5 18:50:01 10° S 18:52:43 18° SE 18:55:24 10° E
BREEZE M DEB (TANK) 3.8 18:51:08 10° W 18:53:47 26° NNW 18:55:46 10° NE
Cosmos 1674 3.3 18:53:56 10° NNW 18:57:36 60° W 19:01:16 10° S
Cosmos 1867 3.6 18:53:16 10° SSW 18:58:42 88° ESE 19:04:12 10° NE
Cosmos 2233 Rocket 4.4 18:55:12 10° N 19:01:01 41° ENE 19:06:49 10° SE
CSL-04 Rocket 4.4 18:58:22 10° SE 19:03:22 36° ENE 19:08:21 10° N
Cosmos 1864 Rocket 4.4 18:57:33 10° N 19:03:43 69° E 19:09:47 10° SSE
Cosmos 1459 Rocket 4.2 19:02:04 10° NNW 19:08:06 73° W 19:14:11 10° S
Cosmos 1626 4.1 19:05:25 10° NNW 19:08:37 32° W 19:11:47 10° SSW
Cosmos 1703 Rocket 4.4 19:04:34 10° NNW 19:08:55 56° W 19:13:13 10° S
Cosmos 1850 Rocket 4.0 19:03:57 10° NNW 19:09:19 73° ENE 19:14:38 10° SSE
USA 215 4.0 19:03:59 10° NE 19:10:19 54° NNW 19:16:38 10° WSW
Cosmos 1110 Rocket 3.9 19:05:46 10° S 19:10:56 70° ESE 19:16:06 10° NNE
JB-3 4.4 19:09:04 10° NNE 19:13:10 88° ESE 19:17:16 10° SSW
SL-4 R/B 2.4 19:12:03 10° SW 19:16:39 60° SE 19:21:13 10° ENE
Cosmos 1733 Rocket 3.5 19:14:45 10° SSE 19:18:40 36° E 19:22:38 10° NNE
NOSS 0 Rocket 4.1 19:13:30 10° NNW 19:19:42 80° WSW 19:25:50 10° SSE
Cosmos 1766 3.7 19:17:07 10° SSE 19:20:37 36° E 19:24:08 10° NNE
Resurs 01 Rocket 2.9 19:19:50 17° E 19:21:47 22° ENE 19:25:12 10° NNE
Cosmos 1331 Rocket 3.9 19:18:46 10° SSW 19:23:55 83° ESE 19:29:06 10° NNE
Cosmos 2237 Rocket 2.2 19:18:23 10° NNW 19:24:02 71° ENE 19:29:38 10° SSE
Cosmos 2061 Rocket 4.0 19:19:21 10° N 19:25:51 83° E 19:32:14 10° S
CZ-4 R/B 1.9 19:22:57 10° S 19:26:44 59° W 19:30:36 10° NNW
Resurs 1-3 3.7 19:22:50 10° SSE 19:27:05 54° ENE 19:31:22 10° N
Cosmos 1725 Rocket 4.1 19:21:17 10° N 19:27:29 84° W 19:33:41 10° S
Cosmos 1805 3.7 19:27:11 10° SSW 19:30:56 62° W 19:34:44 10° N
Feng Yun 1-1 Rocket 4.3 19:25:25 10° SSE 19:30:58 84° WSW 19:36:43 10° NNW
Cosmos 1452 Rocket 4.2 19:25:51 10° SSW 19:31:01 59° WNW 19:36:16 10° NNE
USA 281 4.0 19:26:48 10° NNE 19:33:09 54° WNW 19:39:29 10° SW
SPOT 1/Viking Rocket 4.1 19:30:09 18° SE 19:33:31 38° ENE 19:38:19 10° N
Intercosmos 25 Rocket 4.3 19:27:31 10° N 19:34:04 48° ENE 19:37:03 19° SE
Cosmos 968 Rocket 3.7 19:30:15 10° N 19:35:16 50° ENE 19:38:31 21° SE
CZ-4B R/B 4.2 19:33:49 10° S 19:39:17 49° W 19:44:44 10° NNW
NOSS 3-4 (A) 3.2 19:35:55 10° SSW 19:41:25 63° ESE 19:47:19 10° NE
NOSS 3-4 (C) 3.2 19:36:04 10° SSW 19:41:32 62° ESE 19:47:24 10° NE
Landsat 5 3.9 19:38:20 10° NNE 19:41:58 35° E 19:43:42 24° SE
CSL-04 Debris 4.1 19:37:39 10° SSE 19:43:04 84° ENE 19:48:32 10° NNW
FALCON 9 R/B 4.1 19:14:00 10° WSW 19:44:36 59° S 19:50:25 23° ESE
USA 267 3.5 19:38:54 14° SE 19:44:38 69° SW 19:51:11 10° NW
Cosmos 1980 3.9 19:40:36 10° NNW 19:46:17 74° WSW 19:51:51 10° SSE
Okean-O 2.6 19:46:16 21° SSE 19:49:08 65° ENE 19:53:32 10° N
Okean O Rocket 2.8 19:46:09 10° S 19:50:20 43° W 19:54:32 10° NNW
Lacrosse 5 rocket 3.0 19:49:17 10° W 19:53:13 34° NNW 19:56:59 10° NNE
SJ 16-02 3.1 19:50:25 10° NNE 19:53:11 17° NE 19:53:11 17° NE
Cosmos 2221 Rocket 3.5 19:50:38 10° N 19:55:01 61° E 19:56:56 31° SSE
CZ-4C R/B 3.7 19:50:27 10° NNW 19:56:59 38° NE 20:00:55 25° E
Ariane Rocket 4.2 19:59:14 24° ENE 19:59:28 24° ENE 20:03:28 10° NNE
CENTAUR R/B 4.4 19:52:52 10° NW 20:00:39 40° WSW 20:08:52 10° S
SWARM A 4.2 19:58:58 28° S 20:00:39 88° E 20:04:09 10° N
Cosmos 2297 Rocket 3.0 19:56:14 10° SW 20:01:44 54° WNW 20:07:18 10° NNE
SJ-6B 4.0 19:58:09 10° S 20:01:50 40° W 20:05:28 10° NNW
Cosmos 1271 Rocket 2.6 19:58:54 10° SSW 20:02:39 83° W 20:06:24 10° N
Meteor 1-15 Rocket 4.3 19:57:31 10° S 20:03:10 61° E 20:08:58 10° NNE
Cosmos 1464 Rocket 4.4 20:00:05 10° N 20:06:11 45° ENE 20:08:14 35° ESE
Cosmos 2346 Rocket 4.5 20:00:54 10° S 20:06:53 58° E 20:12:58 10° NNE
Meteor 1-24 Rocket 4.1 20:03:28 10° N 20:09:14 48° ENE 20:10:55 38° ESE
Cosmos 2082 3.8 20:04:59 10° S 20:10:18 46° ESE 20:15:40 10° NE
ISS -2.5 20:07:25 10° NW 20:10:27 32° NNE 20:10:27 32° NNE
Cosmos 1302 Rocket 4.1 20:06:22 10° SSW 20:11:39 79° WNW 20:16:59 10° NNE
Cosmos 1891 Rocket 4.4 20:09:51 10° N 20:16:03 68° E 20:18:57 33° SSE
Cosmos 2219 3.1 20:10:48 10° SSW 20:16:24 89° WNW 20:22:04 10° NNE
USA 186 4.0 20:14:34 11° SSW 20:16:56 23° W 20:19:31 10° NW
MetOp-A 4.3 20:16:26 46° E 20:17:10 49° ENE 20:22:06 10° N
Cosmos 1470 2.6 20:17:56 78° E 20:17:56 78° E 20:21:46 10° N
Cosmos 2227 Rocket 2.6 20:12:32 10° SW 20:18:09 65° WNW 20:23:48 10° NNE
USA 238 DEB 4.4 20:22:50 10° NW 20:30:02 56° WSW 20:34:51 24° S
USA 238 4.4 20:22:56 10° NW 20:30:09 56° WSW 20:34:54 24° S
ADEOS Rocket 4.0 20:29:34 31° ENE 20:30:12 32° ENE 20:36:18 10° N
IRS-1C Rocket 4.4 20:27:24 28° S 20:30:13 65° WSW 20:35:29 10° NNW
Geosat 3.9 20:29:29 63° ESE 20:30:13 77° ENE 20:35:16 10° NNW
BlueWalker 3 2.2 20:27:02 10° WSW 20:30:39 67° WNW 20:30:39 67° WNW
SL-16 R/B 2.1 20:30:50 10° NNW 20:36:34 86° ENE 20:37:34 62° SSE
Meteor 1-12 Rocket 4.5 20:31:39 10° SSW 20:37:26 69° WNW 20:43:08 10° N
Atlas Centaur 2 4.1 20:35:08 10° SSW 20:35:38 12° SSW 20:35:38 12° SSW
Cosmos 1816 Rocket 4.4 20:40:05 57° E 20:40:05 57° E 20:46:02 10° NNE
Cosmos 1513 Rocket 4.4 20:35:54 10° N 20:42:02 82° W 20:44:15 42° S
Cosmos 1066 4.5 20:37:14 10° N 20:42:52 79° E 20:43:17 73° SE
H-2A R/B 3.6 20:44:38 37° NNE 20:44:38 37° NNE 20:47:35 10° N
Terra 3.5 20:48:27 22° NNE 20:48:27 22° NNE 20:50:41 10° N
MetOp-B 4.0 20:46:51 76° ENE 20:46:54 76° ENE 20:52:15 10° N
SPOT 3 Rocket 4.2 20:48:30 42° NE 20:48:30 42° NE 20:52:32 10° N
Cosmos 1992 Rocket 4.0 20:47:40 37° SSW 20:49:46 79° WNW 20:55:00 10° NNE
Meteor 2-5 Rocket 4.0 20:47:16 10° NNW 20:53:07 71° W 20:54:32 52° SSW
SL-4 R/B 3.4 20:51:47 10° W 20:56:12 40° NNW 20:56:45 39° N
Cosmos 1486 Rocket 4.1 20:51:55 10° NNW 20:56:42 71° N 20:56:42 71° N
Resurs 01 Rocket 2.9 20:57:21 34° WSW 20:58:02 36° W 21:02:08 10° NNW
CARTOSAT-1 4.4 21:00:14 48° WNW 21:00:14 48° WNW 21:03:47 10° NNW
Cosmos 2263 Rocket 3.2 21:02:47 34° NNE 21:02:47 34° NNE 21:05:53 10° NNE
Cosmos 2034 Rocket 3.8 21:03:41 10° N 21:09:53 88° W 21:09:53 88° W
ATLAS 2AS CENTAUR R/B 4.5 21:18:46 19° NE 21:18:46 19° NE 21:20:38 10° NE
Tsikada Rocket 4.3 21:18:38 54° NNE 21:18:38 54° NNE 21:23:21 10° N
ERS-1 Rocket 4.1 21:22:31 38° N 21:22:31 38° N 21:25:37 10° N
SJ 16-02 3.3 21:27:53 10° NNW 21:30:05 27° NW 21:30:05 27° NW
SPOT 5 4.3 21:34:11 35° NNW 21:34:11 35° NNW 21:37:05 10° NNW
Lacrosse 5 rocket 4.2 21:31:06 10° NW 21:33:05 13° NNW 21:33:25 13° N
Ariane Rocket 4.3 21:39:24 37° WNW 21:39:24 37° WNW 21:43:00 10° NNW
Cosmos 1943 4.1 21:33:51 10° NNW 21:37:36 43° NNW 21:37:36 43° NNW
CZ-4C R/B 3.2 21:38:38 10° NW 21:46:03 66° WSW 21:46:05 66° WSW
ATLAS 3B R/B 3.7 21:41:50 10° NNW 21:48:41 41° NE 21:48:41 41° NE
ADEOS Rocket 4.0 22:16:30 45° WNW 22:16:30 45° WNW 22:22:09 10° NNW
Terra 4.5 22:27:11 16° NW 22:27:11 16° NW 22:28:21 10° NNW
Cosmos 2344 4.2 22:30:36 10° NW 22:38:56 72° NNE 22:38:56 72° NNE
Cosmos 2263 Rocket 4.5 22:44:18 18° NW 22:44:54 18° NW 22:48:41 10° N
ATLAS 2AS CENTAUR R/B 4.0 23:06:05 39° NNW 23:06:05 39° NNW 23:11:34 10° NNE
ATLAS 3B R/B 4.4 23:32:33 10° NW 23:35:56 28° NW 23:35:56 28° NW
